Regional Weather Roundup
Issued by NWS

Home | Current Version | Previous Version | Graphics & Text | Print | Product List | Glossary On
Versions: 1 2 3 4 5 6 7 8 9 10 11 12 13 14 15 16 17 18 19 20 21 22 23 24 25 26 27 28 29 30 31 32 33 34 35 36 37 38 39 40 41 42 43 44 45 46 47 48 49 50
000
ASUS43 KBIS 301202
RWRND

NORTH DAKOTA REGIONAL WEATHER ROUNDUP
NATIONAL WEATHER SERVICE BISMARCK ND
700 AM CDT TUE JUN 30 2015

NOTE: "FAIR" INDICATES FEW OR NO CLOUDS BELOW 12,000 FEET WITH NO
SIGNIFICANT WEATHER AND/OR OBSTRUCTIONS TO VISIBILITY.


NDZ001>003-009>011-017-301300-
NORTHWEST NORTH DAKOTA

CITY           SKY/WX    TMP DP  RH WIND       PRES   REMARKS
WILLISTON      LGT RAIN  67  61  81 N10       29.95R
6HR MIN TEMP:  67; 6HR MAX TEMP:  72; 6HR PCP: TRACE;

MINOT          CLOUDY    64  61  90 E8        29.93S
MINOT AFB      CLOUDY    63  63 100 E8        29.93S
$$

NDZ018>021-031>035-040>046-301300-
SOUTHWEST NORTH DAKOTA

CITY           SKY/WX    TMP DP  RH WIND       PRES   REMARKS
BISMARCK       CLOUDY    67  63  87 NE9       29.95R
6HR MIN TEMP:  67; 6HR MAX TEMP:  71; 6HR PCP: TRACE;

DICKINSON      CLOUDY    67  60  78 SE7       29.94S
GARRISON         N/A     69  64  84 SE7       29.92F
6HR MIN TEMP:  67; 6HR MAX TEMP:  73;

HETTINGER ARPT CLOUDY    65  59  81 E12       29.95F
$$

NDZ004>008-012>016-024-026-027-054-301300-
NORTHEAST NORTH DAKOTA

CITY           SKY/WX    TMP DP  RH WIND       PRES   REMARKS
GRAND FORKS    CLOUDY    57  56  96 NE5       29.94S FOG
GRND FRKS AFB  SUNNY     56  56  97 NW2       29.96R
DEVILS LAKE    PTSUNNY   61  55  82 CALM      29.98R
$$

NDZ022-023-025-028>030-036>039-047>053-301300-
SOUTHEAST NORTH DAKOTA

CITY           SKY/WX    TMP DP  RH WIND       PRES   REMARKS
FARGO          SUNNY     58  56  93 CALM      29.95R FOG
6HR MIN TEMP:  56; 6HR MAX TEMP:  64;

JAMESTOWN      MOSUNNY   62  59  90 CALM      29.96F FOG
$$



USA.gov is the U.S. government's official web portal to all federal, state and local government web resources and services.